Flag for Brazil Weather past 2 weeks in Santa María, Rio Grande do Sul, Brazil

Now
59 °F

Sunny.


Feels Like: 59 °F
Forecast: 54 / 72 °F
Wind: 5 mph from East

Location: Porto Alegre Aero-Porto

Current Time: Sep 18, 2014 at 7:16:17 AM

Latest Report: Sep 18, 2014 at 6:00 AM


Visibility: 10 mi

Pressure: 30.01 "Hg

Humidity: 94%

Dew point: 57 °F

Location of Santa MaríaLocation

Historic Weather in Santa María — Graph

°F

Santa María temperature yesterday

Maximum temperature yesterday: 72 °F (at 3:00 PM)
Minimum temperature yesterday: 37 °F (at 8:00 AM)
Average temperature yesterday: 61 °F

Past Weeks' High & Low Weather Summary

 TemperatureHumidityPressure
High91 °F (Sep 9, 3:00 PM)100% (Sep 3, 6:00 AM)30.24 "Hg (Sep 3, 6:00 AM)
Low37 °F (Sep 17, 8:00 AM)36% (Sep 9, 4:00 PM)29.62 "Hg (Sep 10, 4:00 AM)
Average65 °F80%30.02 "Hg
* Reported Sep 3 6:00 AM — Sep 18 6:00 AM, Santa María, Weather by CustomWeather, © 2014

Note: Actual official high and low records may vary slightly from our data, if they occured in-between our weather recording intervals... More about our weather records

Advertising

Santa María weather history for previous 24 hours

 ConditionsComfort  
Time TempWeatherWind HumidityBarometerVisibility
6:00 AM
Sep 18
59 °FSunny.5 mph94%30.01 "Hg10 mi
5:00 AM59 °FClear.6 mph94%29.98 "Hg10 mi
4:00 AM61 °FClear.7 mph94%29.98 "Hg10 mi
3:00 AM61 °FClear.6 mph88%30.01 "Hg10 mi
2:00 AM61 °FClear.8 mph88%30.01 "Hg10 mi
1:00 AM63 °FClear.8 mph83%30.04 "Hg10 mi
12:00 AM63 °FClear.9 mph88%30.04 "Hg10 mi
11:00 PM
Sep 17
63 °FClear.10 mph83%30.04 "Hg10 mi
10:00 PM63 °FClear.10 mph83%30.04 "Hg10 mi
9:00 PM63 °FClear.14 mph83%30.04 "Hg10 mi
8:00 PM63 °FClear.15 mph83%30.07 "Hg10 mi
7:00 PM64 °FClear.15 mph73%30.07 "Hg10 mi
6:00 PM64 °FClear.16 mph78%30.07 "Hg10 mi
5:00 PM68 °FPassing clouds.17 mph69%30.07 "HgN/A
4:00 PM70 °FPassing clouds.14 mph64%30.04 "HgN/A
3:00 PM72 °FPassing clouds.12 mph61%30.07 "HgN/A
2:00 PM70 °FPassing clouds.8 mph60%30.07 "HgN/A
1:00 PM68 °FPassing clouds.9 mph64%30.09 "HgN/A
12:00 PM68 °FScattered clouds.10 mph64%30.12 "HgN/A
11:00 AM66 °FPartly sunny.12 mph68%30.15 "HgN/A
10:00 AM63 °FScattered clouds.10 mph77%30.15 "HgN/A
9:00 AM59 °FFog.6 mph94%30.18 "Hg2 mi
8:00 AM37 °FFog.5 mph100%30.15 "Hg1 mi
7:08 AM55 °FFog.5 mph94%30.15 "Hg1 mi
7:00 AM55 °FFog.5 mph94%N/A1 mi
Weather by CustomWeather, © 2014

See weather overviewHow to use our weather pages